Location: Briis
(48.6240°N, 2.1211°E)
Time: 16:18:16
(UTC+00:00)

NOSS 3-4 (C) - Pass Details

Date: 25 September 2020
Orbit: 886 x 1326 km, 63.4° (Epoch: 19 October)

Event Time Altitude Azimuth Distance (km) Brightness Sun altitude
Rises 03:21:43 0° 318° (NW) 3,797 6.4 -23.3°
Reaches altitude 10° 03:24:14 10° 318° (NW) 2,900 5.8 -22.9°
Maximum altitude 03:31:11 87° 231° (SW) 1,162 3.8 -21.9°
Drops below altitude 10° 03:38:55 10° 143° (SE) 3,205 6.3 -20.7°
Sets 03:41:49 0° 143° (SE) 4,217 7.0 -20.3°
